Parkersburg, WV

6:38 AM EDT on October 16, 2019 (GMT -0400)
Wood County Wilson

Weather History for KPKB - August, 2019

Change the Weather History Date:

Thursday, August 29, 2019

  Actual Average Record
Temperature  
Mean Temperature 68 °F 72 °F  
Max Temperature 80 °F 83 °F 99 °F (1953)
Min Temperature 55 °F 61 °F 40 °F (1986)
Degree Days  
Heating Degree Days 0 0  
Month to date heating degree days 0 0  
Since 1 June heating degree days 16 20  
Since 1 July heating degree days 0 1  
Cooling Degree Days 2 7  
Month to date cooling degree days 238 247  
Year to date cooling degree days 935 814  
Since 1 June cooling degree days 790 730  
Growing Degree Days 18 (Base 50)    
Moisture  
Dew Point 56 °F    
Average Humidity 71    
Maximum Humidity 93    
Minimum Humidity 42    
Precipitation  
Precipitation 0.00 in 0.11 in 1.29 in (1989)
Month to date precipitation 3.79 3.38  
Year to date precipitation 33.23 28.56  
Sea Level Pressure  
Sea Level Pressure 30.08 in    
Wind  
Wind Speed 2 mph ()    
Max Wind Speed 14 mph    
Max Gust Speed 19 mph    
Visibility 10.0 miles    
Events      
T = Trace of Precipitation, MM = Missing Value Source: Averaged Metar Reports

Daily Weather History Graph

Daily Weather History Graph

Search for Another Location

Airport or City:

Astronomy

Aug. 29, 2019 Rise Set
Actual Time 6:51 AM EDT 8:01 PM EDT
Civil Twilight 6:23 AM EDT 8:29 PM EDT
Nautical Twilight 5:50 AM EDT 9:02 PM EDT
Astronomical Twilight 5:15 AM EDT 9:36 PM EDT
Moon 5:35 AM EDT (8/29) 7:56 PM EDT (8/29)
Length of Visible Light 14h 05m
Length of Day
13h 10m
Waning Crescent, 1% of the Moon is Illuminated
Aug 29
Waning Crescent
Aug 30
New
Sep 5
First Quarter
Sep 14
Full
Sep 21
Last Quarter

Hourly Weather History & Observations

Time (EDT) Temp. Dew Point Humidity Pressure Visibility Wind Dir Wind Speed Gust Speed Precip Events Conditions
12:53 AM 57.9 °F 55.0 °F 90% 30.04 in 10.0 mi Calm Calm - N/A   Clear
1:53 AM 59.0 °F 55.9 °F 90% 30.04 in 10.0 mi Calm Calm - N/A   Overcast
2:53 AM 59.0 °F 55.9 °F 90% 30.03 in 10.0 mi Calm Calm - N/A   Overcast
3:53 AM 57.9 °F 55.0 °F 90% 30.04 in 10.0 mi Calm Calm - N/A   Partly Cloudy
4:53 AM 57.0 °F 55.0 °F 93% 30.05 in 10.0 mi Calm Calm - N/A   Mostly Cloudy
5:53 AM 55.9 °F 54.0 °F 93% 30.06 in 10.0 mi South 3.5 mph - N/A   Scattered Clouds
6:53 AM 55.0 °F 53.1 °F 93% 30.09 in 10.0 mi Calm Calm - N/A   Partly Cloudy
7:53 AM 57.9 °F 55.9 °F 93% 30.10 in 10.0 mi Calm Calm - N/A   Clear
8:53 AM 63.0 °F 57.0 °F 81% 30.12 in 10.0 mi Calm Calm - N/A   Clear
10:53 AM 71.1 °F 55.9 °F 59% 30.13 in 10.0 mi WSW 4.6 mph - N/A   Clear
11:53 AM 75.0 °F 57.0 °F 53% 30.12 in 10.0 mi Variable 5.8 mph - N/A   Partly Cloudy
12:53 PM 75.9 °F 55.9 °F 50% 30.11 in 10.0 mi WNW 11.5 mph - N/A   Partly Cloudy
1:53 PM 78.1 °F 55.0 °F 45% 30.09 in 10.0 mi WSW 8.1 mph - N/A   Unknown
2:53 PM 78.1 °F 54.0 °F 43% 30.09 in 10.0 mi West 9.2 mph 17.3 mph N/A   Partly Cloudy
3:53 PM 77.0 °F 53.1 °F 43% 30.08 in 10.0 mi SW 10.4 mph - N/A   Partly Cloudy
4:53 PM 78.1 °F 53.1 °F 42% 30.07 in 10.0 mi SW 6.9 mph 17.3 mph N/A   Clear
5:53 PM 78.1 °F 53.1 °F 42% 30.06 in 10.0 mi West 9.2 mph - N/A   Clear
6:53 PM 77.0 °F 55.0 °F 47% 30.06 in 10.0 mi Variable 3.5 mph - N/A   Clear
7:53 PM 72.0 °F 57.0 °F 59% 30.06 in 10.0 mi Calm Calm - N/A   Clear
8:53 PM 66.0 °F 59.0 °F 78% 30.06 in 10.0 mi Calm Calm - N/A   Clear
9:53 PM 63.0 °F 57.9 °F 84% 30.07 in 10.0 mi Calm Calm - N/A   Clear
10:53 PM 62.1 °F 57.9 °F 86% 30.08 in 10.0 mi South 3.5 mph - N/A   Clear
11:53 PM 63.0 °F 55.9 °F 78% 30.08 in 10.0 mi South 4.6 mph - N/A   Clear